Flag for Germany Weather past 2 weeks in Coesfeld, North Rhine-Westphalia, Germany

Now
59 °F

Cool.


Feels Like: 59 °F
Forecast: 53 / 61 °F
Wind: 1 mph from West

Location: Rheine-Bentlage

Current Time: Sep 20, 2014 at 6:37:07 AM

Latest Report: Sep 20, 2014 at 5:20 AM


Visibility: 0 mi

Pressure: 29.92 "Hg

Humidity: 100%

Dew point: 59 °F

Location of CoesfeldLocation

Historic Weather in Coesfeld — Graph

°F

Coesfeld temperature yesterday

Maximum temperature yesterday: 72 °F (at 3:20 PM)
Minimum temperature yesterday: 59 °F (at 7:20 AM)
Average temperature yesterday: 65 °F

Past Weeks' High & Low Weather Summary

 TemperatureHumidityPressure
High79 °F (Sep 18, 2:20 PM)100% (Sep 5, 10:20 PM)30.27 "Hg (Sep 5, 10:20 PM)
Low45 °F (Sep 12, 6:20 AM)48% (Sep 18, 2:20 PM)29.83 "Hg (Sep 18, 4:20 PM)
Average62 °F84%30.03 "Hg
* Reported Sep 5 5:20 AM — Sep 20 5:20 AM, Coesfeld, Weather by CustomWeather, © 2014

Note: Actual official high and low records may vary slightly from our data, if they occured in-between our weather recording intervals... More about our weather records

Advertising

Coesfeld weather history for previous 24 hours

 ConditionsComfort  
Time TempWeatherWind HumidityBarometerVisibility
5:20 AM
Sep 20
59 °FCool.1 mph100%29.92 "Hg0 mi
4:20 AM59 °FCool.2 mph100%29.92 "Hg0 mi
3:20 AM59 °FCool.1 mph100%29.92 "Hg0 mi
2:20 AM59 °FCool.1 mph100%29.92 "Hg0 mi
1:20 AM59 °FCool.2 mph100%29.89 "Hg0 mi
12:20 AM61 °FCool.1 mph94%29.92 "Hg0 mi
11:20 PM
Sep 19
64 °FMild.3 mph94%29.92 "Hg1 mi
10:20 PM66 °FMild.3 mph94%29.89 "Hg2 mi
9:20 PM64 °FMild.1 mph100%29.89 "Hg2 mi
8:20 PM64 °FMild.1 mph100%29.89 "Hg1 mi
7:20 PM68 °FMild.1 mph88%29.86 "Hg2 mi
6:20 PM70 °FMild.3 mph83%29.86 "Hg2 mi
5:20 PM70 °FMild.2 mph83%29.86 "Hg3 mi
4:20 PM70 °FMild.1 mph78%29.86 "Hg3 mi
3:20 PM72 °FMild.1 mph73%29.86 "Hg3 mi
2:20 PM70 °FMild.1 mph78%29.86 "Hg3 mi
1:20 PM70 °FMild.2 mph78%29.86 "Hg3 mi
12:20 PM70 °FPartly sunny.2 mph78%29.86 "Hg4 mi
11:20 AM66 °FPartly sunny.2 mph83%29.86 "Hg4 mi
10:20 AM64 °FPartly sunny.2 mph88%29.86 "Hg4 mi
8:20 AM59 °FFog.1 mph94%29.86 "Hg3 mi
7:20 AM59 °FFog.2 mph94%29.86 "Hg3 mi
6:20 AM61 °FFog.2 mph94%29.83 "HgN/A
Weather by CustomWeather, © 2014

See weather overviewHow to use our weather pages